START_TIME,STEP,MOV.,P11,t_acc.,P23,t_acc.,P27,t_acc.,A4,t_acc.
1979-08-01 06:22:46.010 ,0,0,1.,4.8,0.,4.8,0.,4.8,0.,4.8
1979-08-01 06:22:50.810 ,0,0,1.,4.8,0.,4.8,0.,4.8,0.,4.8
1979-08-01 06:22:55.610 ,0,0,1.,4.8,0.,4.8,0.,4.8,0.,4.8
1979-08-01 06:23:00.410 ,0,0,1.,4.8,0.,4.8,0.,4.8,0.,4.8
1979-08-01 06:23:05.210 ,0,0,0.,4.8,0.,4.8,0.,4.8,0.,4.8
1979-08-01 06:23:10.010 ,0,0,1.,4.8,0.,4.8,0.,4.8,0.,4.8
1979-08-01 06:23:14.810 ,0,0,1.,4.8,0.,4.8,0.,4.8,0.,4.8
1979-08-01 06:23:19.610 ,0,0,2.,4.8,0.,4.8,0.,4.8,0.,4.8
1979-08-01 06:23:24.410 ,0,0,0.,4.8,0.,4.8,0.,4.8,0.,4.8
1979-08-01 06:23:29.210 ,0,0,0.,4.8,0.,4.8,0.,4.8,0.,4.8
1979-08-01 06:23:34.010 ,0,0,1.,4.8,0.,4.8,0.,4.8,0.,4.8
1979-08-01 06:23:38.810 ,0,0,0.,4.8,0.,4.8,0.,4.8,0.,4.8
1979-08-01 06:23:43.610 ,0,0,0.,4.8,0.,4.8,0.,4.8,0.,4.8
1979-08-01 06:23:48.410 ,0,0,2.,4.8,0.,4.8,1.,4.8,0.,4.8
1979-08-01 06:23:53.210 ,0,0,0.,4.8,0.,4.8,0.,4.8,0.,4.8
1979-08-01 06:23:58.010 ,0,0,2.,4.8,0.,4.8,0.,4.8,0.,4.8
1979-08-01 06:24:02.810 ,0,0,0.,4.8,0.,4.8,0.,4.8,0.,4.8
1979-08-01 06:24:07.610 ,0,0,0.,4.8,0.,4.8,0.,4.8,0.,4.8
1979-08-01 06:24:12.410 ,0,0,2.,4.8,0.,4.8,0.,4.8,0.,4.8
1979-08-01 06:24:17.210 ,0,0,1.,4.8,0.,4.8,0.,4.8,0.,4.8
1979-08-01 06:24:22.010 ,0,0,1.,4.8,0.,4.8,0.,4.8,0.,4.8
1979-08-01 06:24:26.810 ,0,0,2.,4.8,0.,4.8,0.,4.8,0.,4.8
1979-08-01 06:24:31.610 ,0,0,0.,4.8,0.,4.8,0.,4.8,0.,4.8
1979-08-01 06:24:36.410 ,0,0,1.,4.8,0.,4.8,0.,4.8,0.,4.8
1979-08-01 06:24:41.210 ,0,0,2.,4.8,0.,4.8,0.,4.8,0.,4.8
1979-08-01 06:24:46.010 ,1,0,1.,4.8,0.,4.8,0.,4.8,0.,4.8
1979-08-01 06:24:50.810 ,1,0,2.,4.8,0.,4.8,0.,4.8,0.,4.8
1979-08-01 06:24:55.610 ,1,0,1.,4.8,0.,4.8,0.,4.8,0.,4.8
1979-08-01 06:25:00.410 ,1,0,1.,4.8,0.,4.8,1.,4.8,0.,4.8
1979-08-01 06:25:05.210 ,1,0,2.,4.8,0.,4.8,0.,4.8,0.,4.8
1979-08-01 06:25:10.010 ,1,0,0.,4.8,0.,4.8,0.,4.8,0.,4.8
1979-08-01 06:25:14.810 ,1,0,1.,4.8,0.,4.8,0.,4.8,0.,4.8
1979-08-01 06:25:19.610 ,1,0,1.,4.8,0.,4.8,0.,4.8,0.,4.8
1979-08-01 06:25:24.410 ,1,0,0.,4.8,0.,4.8,0.,4.8,1.,4.8
1979-08-01 06:25:29.210 ,1,0,0.,4.8,0.,4.8,0.,4.8,0.,4.8
1979-08-01 06:25:34.010 ,2,0,1.,4.8,0.,4.8,0.,4.8,0.,4.8
1979-08-01 06:25:38.810 ,2,0,0.,4.8,0.,4.8,0.,4.8,0.,4.8
1979-08-01 06:25:43.610 ,2,0,0.,4.8,0.,4.8,0.,4.8,0.,4.8
1979-08-01 06:25:48.410 ,2,0,1.,4.8,0.,4.8,0.,4.8,0.,4.8
1979-08-01 06:25:53.210 ,2,0,2.,4.8,0.,4.8,0.,4.8,0.,4.8
1979-08-01 06:25:58.010 ,2,0,0.,4.8,0.,4.8,0.,4.8,0.,4.8
1979-08-01 06:26:02.810 ,2,0,0.,4.8,0.,4.8,0.,4.8,0.,4.8
1979-08-01 06:26:07.610 ,2,0,0.,4.8,0.,4.8,0.,4.8,0.,4.8
1979-08-01 06:26:12.410 ,2,0,0.,4.8,0.,4.8,0.,4.8,1.,4.8
1979-08-01 06:26:17.210 ,2,0,0.,4.8,0.,4.8,0.,4.8,0.,4.8
1979-08-01 06:26:22.010 ,3,0,2.,4.8,0.,4.8,1.,4.8,0.,4.8
1979-08-01 06:26:26.810 ,3,0,0.,4.8,0.,4.8,0.,4.8,0.,4.8
1979-08-01 06:26:31.610 ,3,0,0.,4.8,0.,4.8,0.,4.8,0.,4.8
1979-08-01 06:26:36.410 ,3,0,0.,4.8,0.,4.8,0.,4.8,0.,4.8
1979-08-01 06:26:41.210 ,3,0,2.,4.8,0.,4.8,2.,4.8,0.,4.8
1979-08-01 06:26:46.010 ,3,0,3.,4.8,0.,4.8,0.,4.8,0.,4.8
1979-08-01 06:26:50.810 ,3,0,0.,4.8,0.,4.8,0.,4.8,0.,4.8
1979-08-01 06:26:55.610 ,3,0,0.,4.8,0.,4.8,0.,4.8,0.,4.8
1979-08-01 06:27:00.410 ,3,0,2.,4.8,0.,4.8,0.,4.8,0.,4.8
1979-08-01 06:27:05.210 ,3,0,2.,4.8,0.,4.8,0.,4.8,0.,4.8
1979-08-01 06:27:10.010 ,4,0,0.,4.8,0.,4.8,0.,4.8,0.,4.8
1979-08-01 06:27:14.810 ,4,0,2.,4.8,0.,4.8,1.,4.8,0.,4.8
1979-08-01 06:27:19.610 ,4,0,1.,4.8,0.,4.8,1.,4.8,0.,4.8
1979-08-01 06:27:24.410 ,4,0,1.,4.8,0.,4.8,0.,4.8,0.,4.8
1979-08-01 06:27:29.210 ,4,0,0.,4.8,0.,4.8,0.,4.8,0.,4.8
1979-08-01 06:27:34.010 ,4,0,2.,4.8,0.,4.8,1.,4.8,0.,4.8
1979-08-01 06:27:38.810 ,4,0,0.,4.8,0.,4.8,0.,4.8,0.,4.8
1979-08-01 06:27:43.610 ,4,0,1.,4.8,0.,4.8,0.,4.8,0.,4.8
1979-08-01 06:27:48.410 ,4,0,0.,4.8,0.,4.8,0.,4.8,0.,4.8
1979-08-01 06:27:53.210 ,4,0,0.,4.8,0.,4.8,0.,4.8,0.,4.8
1979-08-01 06:27:58.010 ,5,0,0.,4.8,0.,4.8,0.,4.8,0.,4.8
1979-08-01 06:28:02.810 ,5,0,2.,4.8,0.,4.8,1.,4.8,0.,4.8
1979-08-01 06:28:07.610 ,5,0,1.,4.8,0.,4.8,0.,4.8,0.,4.8
1979-08-01 06:28:12.410 ,5,0,0.,4.8,1.,4.8,0.,4.8,0.,4.8
1979-08-01 06:28:17.210 ,5,0,0.,4.8,0.,4.8,0.,4.8,0.,4.8
1979-08-01 06:28:22.010 ,5,0,0.,4.8,0.,4.8,0.,4.8,0.,4.8
1979-08-01 06:28:26.810 ,5,0,1.,4.8,0.,4.8,0.,4.8,0.,4.8
1979-08-01 06:28:31.610 ,5,0,0.,4.8,0.,4.8,0.,4.8,0.,4.8
1979-08-01 06:28:36.410 ,5,0,1.,4.8,0.,4.8,0.,4.8,0.,4.8
1979-08-01 06:28:41.210 ,5,0,0.,4.8,0.,4.8,2.,4.8,0.,4.8
1979-08-01 06:28:46.010 ,6,0,0.,4.8,0.,4.8,0.,4.8,0.,4.8
1979-08-01 06:28:50.810 ,6,0,1.,4.8,0.,4.8,0.,4.8,0.,4.8
1979-08-01 06:28:55.610 ,6,0,1.,4.8,0.,4.8,0.,4.8,0.,4.8
1979-08-01 06:29:00.410 ,6,0,0.,4.8,0.,4.8,0.,4.8,0.,4.8
1979-08-01 06:29:05.210 ,6,0,1.,4.8,0.,4.8,0.,4.8,0.,4.8
1979-08-01 06:29:10.010 ,0,0,2.,4.8,1.,4.8,1.,4.8,0.,4.8
1979-08-01 06:29:14.810 ,0,0,0.,4.8,0.,4.8,0.,4.8,0.,4.8
1979-08-01 06:29:19.610 ,0,0,3.,4.8,0.,4.8,2.,4.8,0.,4.8
1979-08-01 06:29:24.410 ,0,0,1.,4.8,0.,4.8,0.,4.8,0.,4.8
1979-08-01 06:29:29.210 ,0,0,0.,4.8,0.,4.8,0.,4.8,0.,4.8
1979-08-01 06:29:34.010 ,7,0,2.,4.8,0.,4.8,0.,4.8,0.,4.8
1979-08-01 06:29:38.810 ,7,0,0.,4.8,0.,4.8,0.,4.8,0.,4.8
1979-08-01 06:29:43.610 ,7,0,1.,4.8,1.,4.8,0.,4.8,0.,4.8
1979-08-01 06:29:48.410 ,7,0,1.,4.8,0.,4.8,0.,4.8,0.,4.8
1979-08-01 06:29:53.210 ,7,0,3.,4.8,0.,4.8,0.,4.8,0.,4.8
1979-08-01 06:29:58.010 ,7,0,1.,4.8,0.,4.8,0.,4.8,0.,4.8
1979-08-01 06:30:02.810 ,7,0,0.,4.8,0.,4.8,0.,4.8,0.,4.8
1979-08-01 06:30:07.610 ,7,0,0.,4.8,0.,4.8,0.,4.8,0.,4.8
1979-08-01 06:30:12.410 ,7,0,0.,4.8,1.,4.8,1.,4.8,0.,4.8
1979-08-01 06:30:17.210 ,7,0,0.,4.8,0.,4.8,0.,4.8,0.,4.8
1979-08-01 06:31:10.010 ,0,0,1.,4.8,0.,4.8,0.,4.8,0.,4.8
1979-08-01 06:31:14.810 ,0,0,0.,4.8,0.,4.8,0.,4.8,0.,4.8
1979-08-01 06:31:19.610 ,0,0,0.,4.8,0.,4.8,0.,4.8,0.,4.8
1979-08-01 06:31:24.410 ,0,0,0.,4.8,0.,4.8,0.,4.8,0.,4.8
1979-08-01 06:31:29.210 ,0,0,0.,4.8,0.,4.8,0.,4.8,0.,4.8
1979-08-01 06:31:34.010 ,0,0,0.,4.8,0.,4.8,0.,4.8,0.,4.8
1979-08-01 06:31:38.810 ,0,0,1.,4.8,0.,4.8,0.,4.8,0.,4.8
1979-08-01 06:31:43.610 ,0,0,1.,4.8,0.,4.8,0.,4.8,0.,4.8
1979-08-01 06:31:48.410 ,0,0,1.,4.8,0.,4.8,0.,4.8,0.,4.8
1979-08-01 06:31:53.210 ,0,0,0.,4.8,0.,4.8,0.,4.8,0.,4.8
1979-08-01 06:31:58.010 ,5,0,0.,4.8,0.,4.8,0.,4.8,0.,4.8
1979-08-01 06:32:02.810 ,5,0,0.,4.8,0.,4.8,0.,4.8,0.,4.8
1979-08-01 06:32:07.610 ,5,0,1.,4.8,0.,4.8,0.,4.8,0.,4.8
1979-08-01 06:32:12.410 ,5,0,0.,4.8,0.,4.8,0.,4.8,0.,4.8
1979-08-01 06:32:17.210 ,5,0,0.,4.8,0.,4.8,0.,4.8,0.,4.8
1979-08-01 06:32:22.010 ,5,0,1.,4.8,0.,4.8,0.,4.8,0.,4.8
1979-08-01 06:32:26.810 ,5,0,2.,4.8,0.,4.8,1.,4.8,0.,4.8
1979-08-01 06:32:31.610 ,5,0,1.,4.8,0.,4.8,0.,4.8,0.,4.8
1979-08-01 06:32:36.410 ,5,0,1.,4.8,0.,4.8,0.,4.8,0.,4.8
1979-08-01 06:32:41.210 ,5,0,0.,4.8,0.,4.8,0.,4.8,0.,4.8
1979-08-01 06:32:46.010 ,4,0,1.,4.8,0.,4.8,1.,4.8,0.,4.8
1979-08-01 06:32:50.810 ,4,0,0.,4.8,0.,4.8,0.,4.8,0.,4.8
1979-08-01 06:32:55.610 ,4,0,0.,4.8,0.,4.8,0.,4.8,0.,4.8
1979-08-01 06:33:00.410 ,4,0,2.,4.8,0.,4.8,0.,4.8,0.,4.8
1979-08-01 06:33:05.210 ,4,0,0.,4.8,0.,4.8,0.,4.8,0.,4.8
1979-08-01 06:33:10.010 ,4,0,0.,4.8,0.,4.8,0.,4.8,0.,4.8
1979-08-01 06:33:14.810 ,4,0,0.,4.8,0.,4.8,0.,4.8,0.,4.8
1979-08-01 06:33:19.610 ,4,0,1.,4.8,0.,4.8,0.,4.8,0.,4.8
1979-08-01 06:33:24.410 ,4,0,1.,4.8,0.,4.8,0.,4.8,0.,4.8
1979-08-01 06:33:29.210 ,4,0,1.,4.8,0.,4.8,0.,4.8,0.,4.8
1979-08-01 06:33:34.010 ,3,0,1.,4.8,0.,4.8,0.,4.8,0.,4.8
1979-08-01 06:33:38.810 ,3,0,0.,4.8,0.,4.8,0.,4.8,0.,4.8
1979-08-01 06:33:43.610 ,3,0,0.,4.8,0.,4.8,0.,4.8,0.,4.8
1979-08-01 06:33:48.410 ,3,0,0.,4.8,0.,4.8,0.,4.8,1.,4.8
1979-08-01 06:33:53.210 ,3,0,0.,4.8,0.,4.8,1.,4.8,0.,4.8
1979-08-01 06:33:58.010 ,3,0,2.,4.8,0.,4.8,0.,4.8,0.,4.8
1979-08-01 06:34:02.810 ,3,0,0.,4.8,0.,4.8,1.,4.8,0.,4.8
1979-08-01 06:34:07.610 ,3,0,0.,4.8,0.,4.8,0.,4.8,0.,4.8
1979-08-01 06:34:12.410 ,3,0,1.,4.8,0.,4.8,0.,4.8,0.,4.8
1979-08-01 06:34:17.210 ,3,0,0.,4.8,0.,4.8,0.,4.8,0.,4.8
1979-08-01 06:34:22.010 ,2,0,0.,4.8,0.,4.8,0.,4.8,0.,4.8
1979-08-01 06:34:26.810 ,2,0,2.,4.8,0.,4.8,0.,4.8,0.,4.8
1979-08-01 06:34:31.610 ,2,0,1.,4.8,0.,4.8,0.,4.8,0.,4.8
1979-08-01 06:34:36.410 ,2,0,1.,4.8,0.,4.8,0.,4.8,0.,4.8
1979-08-01 06:34:41.210 ,2,0,0.,4.8,0.,4.8,0.,4.8,0.,4.8
1979-08-01 06:34:46.010 ,2,0,0.,4.8,0.,4.8,0.,4.8,0.,4.8
1979-08-01 06:34:50.810 ,2,0,0.,4.8,0.,4.8,0.,4.8,0.,4.8
1979-08-01 06:34:55.610 ,2,0,0.,4.8,0.,4.8,0.,4.8,0.,4.8
1979-08-01 06:35:00.410 ,2,0,2.,4.8,0.,4.8,0.,4.8,0.,4.8
1979-08-01 06:35:05.210 ,2,0,0.,4.8,0.,4.8,1.,4.8,0.,4.8
1979-08-01 06:35:58.010 ,0,0,0.,4.8,0.,4.8,0.,4.8,0.,4.8
1979-08-01 06:36:02.810 ,0,0,0.,4.8,0.,4.8,0.,4.8,0.,4.8
1979-08-01 06:36:07.610 ,0,0,0.,4.8,0.,4.8,0.,4.8,0.,4.8
1979-08-01 06:36:12.410 ,0,0,0.,4.8,0.,4.8,1.,4.8,0.,4.8
1979-08-01 06:36:17.210 ,0,0,0.,4.8,0.,4.8,0.,4.8,0.,4.8
1979-08-01 06:36:22.010 ,0,0,0.,4.8,0.,4.8,1.,4.8,0.,4.8
1979-08-01 06:36:26.810 ,0,0,1.,4.8,0.,4.8,0.,4.8,0.,4.8
1979-08-01 06:36:31.610 ,0,0,0.,4.8,0.,4.8,0.,4.8,0.,4.8
1979-08-01 06:36:36.410 ,0,0,3.,4.8,0.,4.8,0.,4.8,0.,4.8
1979-08-01 06:36:41.210 ,0,0,3.,4.8,0.,4.8,0.,4.8,0.,4.8
1979-08-01 06:36:46.010 ,0,0,0.,4.8,0.,4.8,0.,4.8,0.,4.8
1979-08-01 06:36:50.810 ,0,0,1.,4.8,0.,4.8,0.,4.8,0.,4.8
1979-08-01 06:36:55.610 ,0,0,1.,4.8,0.,4.8,0.,4.8,0.,4.8
1979-08-01 06:37:00.410 ,0,0,3.,4.8,0.,4.8,0.,4.8,0.,4.8
1979-08-01 06:37:05.210 ,0,0,0.,4.8,0.,4.8,0.,4.8,0.,4.8
1979-08-01 06:37:10.010 ,0,0,0.,4.8,0.,4.8,0.,4.8,0.,4.8
1979-08-01 06:37:14.810 ,0,0,1.,4.8,0.,4.8,0.,4.8,0.,4.8
1979-08-01 06:37:19.610 ,0,0,0.,4.8,0.,4.8,1.,4.8,0.,4.8
1979-08-01 06:37:24.410 ,0,0,1.,4.8,0.,4.8,0.,4.8,0.,4.8
1979-08-01 06:37:29.210 ,0,0,0.,4.8,0.,4.8,0.,4.8,0.,4.8
1979-08-01 06:37:34.010 ,0,0,0.,4.8,0.,4.8,0.,4.8,0.,4.8
1979-08-01 06:37:38.810 ,0,0,1.,4.8,0.,4.8,0.,4.8,0.,4.8
1979-08-01 06:37:43.610 ,0,0,2.,4.8,0.,4.8,0.,4.8,0.,4.8
1979-08-01 06:37:48.410 ,0,0,2.,4.8,0.,4.8,1.,4.8,0.,4.8
1979-08-01 06:37:53.210 ,0,0,0.,4.8,0.,4.8,0.,4.8,0.,4.8
1979-08-01 06:37:58.010 ,0,0,1.,4.8,0.,4.8,0.,4.8,0.,4.8
1979-08-01 06:38:02.810 ,0,0,3.,4.8,0.,4.8,1.,4.8,0.,4.8
1979-08-01 06:38:07.610 ,0,0,2.,4.8,1.,4.8,0.,4.8,0.,4.8
1979-08-01 06:38:12.410 ,0,0,0.,4.8,0.,4.8,1.,4.8,0.,4.8
1979-08-01 06:38:17.210 ,0,0,0.,4.8,0.,4.8,0.,4.8,0.,4.8
1979-08-01 06:38:22.010 ,2,0,0.,4.8,0.,4.8,0.,4.8,0.,4.8
1979-08-01 06:38:26.810 ,2,0,0.,4.8,0.,4.8,0.,4.8,0.,4.8
1979-08-01 06:38:31.610 ,2,0,0.,4.8,0.,4.8,0.,4.8,0.,4.8
1979-08-01 06:38:36.410 ,2,0,1.,4.8,0.,4.8,0.,4.8,0.,4.8
1979-08-01 06:38:41.210 ,2,0,0.,4.8,0.,4.8,0.,4.8,0.,4.8
1979-08-01 06:38:46.010 ,2,0,1.,4.8,0.,4.8,0.,4.8,0.,4.8
1979-08-01 06:38:50.810 ,2,0,1.,4.8,0.,4.8,0.,4.8,0.,4.8
1979-08-01 06:38:55.610 ,2,0,0.,4.8,0.,4.8,0.,4.8,0.,4.8
1979-08-01 06:39:00.410 ,2,0,2.,4.8,0.,4.8,0.,4.8,0.,4.8
1979-08-01 06:39:05.210 ,2,0,0.,4.8,0.,4.8,0.,4.8,0.,4.8
1979-08-01 06:39:10.010 ,3,0,0.,4.8,0.,4.8,0.,4.8,0.,4.8
1979-08-01 06:39:14.810 ,3,0,0.,4.8,0.,4.8,0.,4.8,0.,4.8
1979-08-01 06:39:19.610 ,3,0,1.,4.8,0.,4.8,0.,4.8,0.,4.8
1979-08-01 06:39:24.410 ,3,0,1.,4.8,0.,4.8,0.,4.8,0.,4.8
1979-08-01 06:39:29.210 ,3,0,0.,4.8,0.,4.8,0.,4.8,0.,4.8
1979-08-01 06:39:34.010 ,3,0,0.,4.8,0.,4.8,0.,4.8,0.,4.8
1979-08-01 06:39:38.810 ,3,0,1.,4.8,0.,4.8,1.,4.8,0.,4.8
1979-08-01 06:39:43.610 ,3,0,2.,4.8,0.,4.8,0.,4.8,0.,4.8
1979-08-01 06:39:48.410 ,3,0,1.,4.8,0.,4.8,0.,4.8,0.,4.8
1979-08-01 06:39:53.210 ,3,0,1.,4.8,0.,4.8,0.,4.8,0.,4.8
1979-08-01 06:39:58.010 ,4,0,1.,4.8,0.,4.8,0.,4.8,0.,4.8
1979-08-01 06:40:02.810 ,4,0,1.,4.8,0.,4.8,0.,4.8,0.,4.8
1979-08-01 06:40:07.610 ,4,0,1.,4.8,0.,4.8,0.,4.8,0.,4.8
1979-08-01 06:40:12.410 ,4,0,0.,4.8,0.,4.8,2.,4.8,0.,4.8
1979-08-01 06:40:17.210 ,4,0,0.,4.8,0.,4.8,0.,4.8,0.,4.8
1979-08-01 06:40:22.010 ,4,0,0.,4.8,1.,4.8,1.,4.8,0.,4.8
1979-08-01 06:40:26.810 ,4,0,0.,4.8,0.,4.8,0.,4.8,0.,4.8
1979-08-01 06:40:31.610 ,4,0,0.,4.8,0.,4.8,0.,4.8,0.,4.8
1979-08-01 06:40:36.410 ,4,0,0.,4.8,0.,4.8,0.,4.8,0.,4.8
1979-08-01 06:40:41.210 ,4,0,1.,4.8,0.,4.8,0.,4.8,0.,4.8
1979-08-01 06:41:34.010 ,0,0,1.,4.8,0.,4.8,0.,4.8,0.,4.8
1979-08-01 06:41:38.810 ,0,0,0.,4.8,0.,4.8,0.,4.8,0.,4.8
1979-08-01 06:41:43.610 ,0,0,1.,4.8,0.,4.8,0.,4.8,0.,4.8
1979-08-01 06:41:48.410 ,0,0,0.,4.8,0.,4.8,1.,4.8,0.,4.8
1979-08-01 06:41:53.210 ,0,0,2.,4.8,0.,4.8,0.,4.8,0.,4.8
1979-08-01 06:41:58.010 ,0,0,0.,4.8,0.,4.8,0.,4.8,0.,4.8
1979-08-01 06:42:02.810 ,0,0,1.,4.8,0.,4.8,0.,4.8,0.,4.8
1979-08-01 06:42:07.610 ,0,0,0.,4.8,0.,4.8,0.,4.8,0.,4.8
1979-08-01 06:42:12.410 ,0,0,2.,4.8,0.,4.8,0.,4.8,0.,4.8
1979-08-01 06:42:17.210 ,0,0,2.,4.8,0.,4.8,0.,4.8,0.,4.8
1979-08-01 06:42:22.010 ,7,0,1.,4.8,0.,4.8,0.,4.8,0.,4.8
1979-08-01 06:42:26.810 ,7,0,0.,4.8,0.,4.8,0.,4.8,0.,4.8
1979-08-01 06:42:31.610 ,7,0,1.,4.8,0.,4.8,1.,4.8,0.,4.8
1979-08-01 06:42:36.410 ,7,0,2.,4.8,0.,4.8,0.,4.8,0.,4.8
1979-08-01 06:42:41.210 ,7,0,0.,4.8,0.,4.8,0.,4.8,0.,4.8
1979-08-01 06:42:46.010 ,7,0,2.,4.8,0.,4.8,0.,4.8,0.,4.8
1979-08-01 06:42:50.810 ,7,0,2.,4.8,0.,4.8,0.,4.8,0.,4.8
1979-08-01 06:42:55.610 ,7,0,0.,4.8,0.,4.8,0.,4.8,0.,4.8
1979-08-01 06:43:00.410 ,7,0,0.,4.8,0.,4.8,0.,4.8,0.,4.8
1979-08-01 06:43:05.210 ,7,0,0.,4.8,0.,4.8,0.,4.8,0.,4.8
1979-08-01 06:43:10.010 ,3,1,0.,4.8,0.,4.8,0.,4.8,0.,4.8
1979-08-01 06:43:14.810 ,3,1,0.,4.8,0.,4.8,1.,4.8,0.,4.8
1979-08-01 06:43:19.610 ,3,1,1.,4.8,0.,4.8,0.,4.8,0.,4.8
1979-08-01 06:43:24.410 ,3,1,0.,4.8,0.,4.8,0.,4.8,0.,4.8
1979-08-01 06:43:29.210 ,3,1,2.,4.8,0.,4.8,0.,4.8,0.,4.8
1979-08-01 06:43:34.010 ,0,1,0.,4.8,0.,4.8,1.,4.8,0.,4.8
1979-08-01 06:43:38.810 ,0,1,0.,4.8,0.,4.8,1.,4.8,0.,4.8
1979-08-01 06:43:43.610 ,0,1,0.,4.8,0.,4.8,0.,4.8,0.,4.8
1979-08-01 06:43:48.410 ,0,1,0.,4.8,0.,4.8,0.,4.8,0.,4.8
1979-08-01 06:43:53.210 ,0,1,1.,4.8,0.,4.8,0.,4.8,0.,4.8
1979-08-01 06:43:58.010 ,4,1,0.,4.8,0.,4.8,0.,4.8,0.,4.8
1979-08-01 06:44:02.810 ,4,1,0.,4.8,0.,4.8,0.,4.8,0.,4.8
1979-08-01 06:44:07.610 ,4,1,1.,4.8,0.,4.8,0.,4.8,0.,4.8
1979-08-01 06:44:12.410 ,4,1,0.,4.8,0.,4.8,0.,4.8,0.,4.8
1979-08-01 06:44:17.210 ,4,1,1.,4.8,0.,4.8,0.,4.8,0.,4.8
1979-08-01 06:44:22.010 ,7,1,1.,4.8,0.,4.8,0.,4.8,0.,4.8
1979-08-01 06:44:26.810 ,7,1,0.,4.8,0.,4.8,0.,4.8,0.,4.8
1979-08-01 06:44:31.610 ,7,1,0.,4.8,0.,4.8,0.,4.8,0.,4.8
1979-08-01 06:44:36.410 ,7,1,0.,4.8,0.,4.8,0.,4.8,0.,4.8
1979-08-01 06:44:41.210 ,7,1,0.,4.8,0.,4.8,0.,4.8,0.,4.8
1979-08-01 06:44:46.010 ,3,1,0.,4.8,0.,4.8,0.,4.8,0.,4.8
1979-08-01 06:44:50.810 ,3,1,0.,4.8,0.,4.8,0.,4.8,0.,4.8
1979-08-01 06:44:55.610 ,3,1,0.,4.8,0.,4.8,0.,4.8,0.,4.8
1979-08-01 06:45:00.410 ,3,1,0.,4.8,0.,4.8,0.,4.8,0.,4.8
1979-08-01 06:45:05.210 ,3,1,1.,4.8,0.,4.8,0.,4.8,0.,4.8
1979-08-01 06:45:10.010 ,0,1,0.,4.8,0.,4.8,0.,4.8,0.,4.8
1979-08-01 06:45:14.810 ,0,1,0.,4.8,0.,4.8,0.,4.8,0.,4.8
1979-08-01 06:45:19.610 ,0,1,1.,4.8,0.,4.8,0.,4.8,0.,4.8
1979-08-01 06:45:24.410 ,0,1,1.,4.8,0.,4.8,1.,4.8,0.,4.8
1979-08-01 06:45:29.210 ,0,1,0.,4.8,1.,4.8,1.,4.8,0.,4.8
1979-08-01 06:45:34.010 ,4,1,0.,4.8,0.,4.8,0.,4.8,0.,4.8
1979-08-01 06:45:38.810 ,4,1,2.,4.8,0.,4.8,0.,4.8,0.,4.8
1979-08-01 06:45:43.610 ,4,1,0.,4.8,0.,4.8,0.,4.8,0.,4.8
1979-08-01 06:45:48.410 ,4,1,0.,4.8,0.,4.8,0.,4.8,0.,4.8
1979-08-01 06:45:53.210 ,4,1,0.,4.8,0.,4.8,0.,4.8,0.,4.8
1979-08-01 06:45:58.010 ,7,1,0.,4.8,0.,4.8,0.,4.8,0.,4.8
1979-08-01 06:46:02.810 ,7,1,3.,4.8,1.,4.8,0.,4.8,0.,4.8
1979-08-01 06:46:07.610 ,7,1,1.,4.8,0.,4.8,0.,4.8,0.,4.8
1979-08-01 06:46:12.410 ,7,1,0.,4.8,0.,4.8,0.,4.8,0.,4.8
1979-08-01 06:46:17.210 ,7,1,0.,4.8,0.,4.8,0.,4.8,0.,4.8
1979-08-01 06:46:22.010 ,3,1,0.,4.8,0.,4.8,0.,4.8,0.,4.8
1979-08-01 06:46:26.810 ,3,1,1.,4.8,0.,4.8,0.,4.8,0.,4.8
1979-08-01 06:46:31.610 ,3,1,1.,4.8,0.,4.8,0.,4.8,0.,4.8
1979-08-01 06:46:36.410 ,3,1,2.,4.8,0.,4.8,1.,4.8,0.,4.8
1979-08-01 06:46:41.210 ,3,1,0.,4.8,0.,4.8,0.,4.8,0.,4.8
1979-08-01 06:46:46.010 ,0,1,1.,4.8,0.,4.8,0.,4.8,0.,4.8
1979-08-01 06:46:50.810 ,0,1,2.,4.8,0.,4.8,0.,4.8,0.,4.8
1979-08-01 06:46:55.610 ,0,1,0.,4.8,0.,4.8,0.,4.8,0.,4.8
1979-08-01 06:47:00.410 ,0,1,0.,4.8,0.,4.8,1.,4.8,0.,4.8
1979-08-01 06:47:05.210 ,0,1,3.,4.8,0.,4.8,0.,4.8,0.,4.8
1979-08-01 06:47:10.010 ,4,1,2.,4.8,0.,4.8,0.,4.8,0.,4.8
1979-08-01 06:47:14.810 ,4,1,0.,4.8,0.,4.8,0.,4.8,0.,4.8
1979-08-01 06:47:19.610 ,4,1,0.,4.8,0.,4.8,0.,4.8,0.,4.8
1979-08-01 06:47:24.410 ,4,1,2.,4.8,0.,4.8,0.,4.8,0.,4.8
1979-08-01 06:47:29.210 ,4,1,0.,4.8,1.,4.8,0.,4.8,0.,4.8
1979-08-01 06:47:34.010 ,7,1,1.,4.8,0.,4.8,0.,4.8,0.,4.8
1979-08-01 06:47:38.810 ,7,1,0.,4.8,0.,4.8,0.,4.8,0.,4.8
1979-08-01 06:47:43.610 ,7,1,1.,4.8,0.,4.8,1.,4.8,0.,4.8
1979-08-01 06:47:48.410 ,7,1,0.,4.8,0.,4.8,0.,4.8,0.,4.8
1979-08-01 06:47:53.210 ,7,1,0.,4.8,0.,4.8,0.,4.8,0.,4.8
1979-08-01 06:47:58.010 ,3,1,3.,4.8,0.,4.8,0.,4.8,0.,4.8
1979-08-01 06:48:02.810 ,3,1,2.,4.8,0.,4.8,0.,4.8,0.,4.8
1979-08-01 06:48:07.610 ,3,1,1.,4.8,0.,4.8,0.,4.8,0.,4.8
1979-08-01 06:48:12.410 ,3,1,0.,4.8,0.,4.8,0.,4.8,0.,4.8
1979-08-01 06:48:17.210 ,3,1,0.,4.8,0.,4.8,0.,4.8,0.,4.8
1979-08-01 06:48:22.010 ,0,1,0.,4.8,0.,4.8,0.,4.8,0.,4.8
1979-08-01 06:48:26.810 ,0,1,2.,4.8,0.,4.8,0.,4.8,0.,4.8
1979-08-01 06:48:31.610 ,0,1,0.,4.8,0.,4.8,0.,4.8,0.,4.8
1979-08-01 06:48:36.410 ,0,1,1.,4.8,0.,4.8,0.,4.8,0.,4.8
1979-08-01 06:48:41.210 ,0,1,1.,4.8,0.,4.8,1.,4.8,0.,4.8
1979-08-01 06:48:46.010 ,3,1,1.,4.8,1.,4.8,0.,4.8,0.,4.8
1979-08-01 06:48:50.810 ,3,1,0.,4.8,0.,4.8,1.,4.8,0.,4.8
1979-08-01 06:48:55.610 ,3,1,2.,4.8,0.,4.8,0.,4.8,0.,4.8
1979-08-01 06:49:00.410 ,3,1,0.,4.8,0.,4.8,0.,4.8,0.,4.8
1979-08-01 06:49:05.210 ,3,1,,0,,0,,0,,0
1979-08-01 06:49:10.010 ,7,1,0.,4.8,0.,4.8,0.,4.8,0.,4.8
1979-08-01 06:49:14.810 ,7,1,2.,4.8,0.,4.8,1.,4.8,0.,4.8
1979-08-01 06:49:19.610 ,7,1,0.,4.8,0.,4.8,0.,4.8,0.,4.8
1979-08-01 06:49:24.410 ,7,1,0.,4.8,0.,4.8,1.,4.8,0.,4.8
1979-08-01 06:49:29.210 ,7,1,0.,4.8,0.,4.8,1.,4.8,0.,4.8
1979-08-01 06:49:34.010 ,3,1,1.,4.8,0.,4.8,0.,4.8,0.,4.8
1979-08-01 06:49:38.810 ,3,1,1.,4.8,0.,4.8,0.,4.8,0.,4.8
1979-08-01 06:49:43.610 ,3,1,2.,4.8,0.,4.8,0.,4.8,0.,4.8
1979-08-01 06:49:48.410 ,3,1,0.,4.8,0.,4.8,0.,4.8,0.,4.8
1979-08-01 06:49:53.210 ,3,1,0.,4.8,0.,4.8,0.,4.8,0.,4.8
1979-08-01 06:49:58.010 ,0,1,3.,4.8,0.,4.8,1.,4.8,0.,4.8
1979-08-01 06:50:02.810 ,0,1,0.,4.8,0.,4.8,0.,4.8,0.,4.8
1979-08-01 06:50:07.610 ,0,1,0.,4.8,0.,4.8,0.,4.8,0.,4.8
1979-08-01 06:50:12.410 ,0,1,1.,4.8,0.,4.8,0.,4.8,0.,4.8
1979-08-01 06:50:17.210 ,0,1,1.,4.8,0.,4.8,0.,4.8,0.,4.8
1979-08-01 06:50:22.010 ,4,1,0.,4.8,0.,4.8,0.,4.8,0.,4.8
1979-08-01 06:50:26.810 ,4,1,1.,4.8,0.,4.8,0.,4.8,0.,4.8
1979-08-01 06:50:31.610 ,4,1,0.,4.8,0.,4.8,0.,4.8,0.,4.8
1979-08-01 06:50:36.410 ,4,1,0.,4.8,0.,4.8,0.,4.8,0.,4.8
1979-08-01 06:50:41.210 ,4,1,1.,4.8,0.,4.8,0.,4.8,0.,4.8
1979-08-01 06:50:46.010 ,7,1,1.,4.8,0.,4.8,1.,4.8,0.,4.8
1979-08-01 06:50:50.810 ,7,1,0.,4.8,0.,4.8,0.,4.8,0.,4.8
1979-08-01 06:50:55.610 ,7,1,0.,4.8,0.,4.8,0.,4.8,0.,4.8
1979-08-01 06:51:00.410 ,7,1,0.,4.8,0.,4.8,0.,4.8,0.,4.8
1979-08-01 06:51:05.210 ,7,1,1.,4.8,0.,4.8,0.,4.8,0.,4.8
1979-08-01 06:51:10.010 ,3,1,0.,4.8,0.,4.8,1.,4.8,0.,4.8
1979-08-01 06:51:14.810 ,3,1,0.,4.8,0.,4.8,0.,4.8,0.,4.8
1979-08-01 06:51:19.610 ,3,1,0.,4.8,0.,4.8,0.,4.8,0.,4.8
1979-08-01 06:51:24.410 ,3,1,1.,4.8,0.,4.8,0.,4.8,0.,4.8
1979-08-01 06:51:29.210 ,3,1,2.,4.8,0.,4.8,0.,4.8,0.,4.8
1979-08-01 06:51:34.010 ,0,1,1.,4.8,0.,4.8,0.,4.8,0.,4.8
1979-08-01 06:51:38.810 ,0,1,1.,4.8,0.,4.8,0.,4.8,0.,4.8
1979-08-01 06:51:43.610 ,0,1,2.,4.8,0.,4.8,0.,4.8,0.,4.8
1979-08-01 06:51:48.410 ,0,1,0.,4.8,0.,4.8,0.,4.8,0.,4.8
1979-08-01 06:51:53.210 ,0,1,0.,4.8,0.,4.8,0.,4.8,0.,4.8
1979-08-01 06:51:58.010 ,4,1,2.,4.8,0.,4.8,0.,4.8,0.,4.8
1979-08-01 06:52:02.810 ,4,1,1.,4.8,0.,4.8,1.,4.8,0.,4.8
1979-08-01 06:52:07.610 ,4,1,0.,4.8,0.,4.8,0.,4.8,0.,4.8
1979-08-01 06:52:12.410 ,4,1,2.,4.8,0.,4.8,0.,4.8,0.,4.8
1979-08-01 06:52:17.210 ,4,1,0.,4.8,0.,4.8,0.,4.8,0.,4.8
1979-08-01 06:52:22.010 ,7,1,1.,4.8,0.,4.8,0.,4.8,0.,4.8
1979-08-01 06:52:26.810 ,7,1,0.,4.8,0.,4.8,0.,4.8,0.,4.8
1979-08-01 06:52:31.610 ,7,1,0.,4.8,0.,4.8,0.,4.8,0.,4.8
1979-08-01 06:52:36.410 ,7,1,0.,4.8,0.,4.8,0.,4.8,0.,4.8
1979-08-01 06:52:41.210 ,7,1,1.,4.8,0.,4.8,0.,4.8,0.,4.8
1979-08-01 06:52:46.010 ,3,1,0.,4.8,0.,4.8,0.,4.8,0.,4.8
1979-08-01 06:52:50.810 ,3,1,0.,4.8,0.,4.8,0.,4.8,0.,4.8
1979-08-01 06:52:55.610 ,3,1,3.,4.8,0.,4.8,0.,4.8,0.,4.8
1979-08-01 06:53:00.410 ,3,1,1.,4.8,0.,4.8,0.,4.8,0.,4.8
1979-08-01 06:53:05.210 ,3,1,1.,4.8,1.,4.8,0.,4.8,0.,4.8
1979-08-01 06:53:10.010 ,0,1,1.,4.8,0.,4.8,0.,4.8,0.,4.8
1979-08-01 06:53:14.810 ,0,1,0.,4.8,0.,4.8,0.,4.8,0.,4.8
1979-08-01 06:53:19.610 ,0,1,1.,4.8,0.,4.8,0.,4.8,0.,4.8
1979-08-01 06:53:24.410 ,0,1,1.,4.8,0.,4.8,0.,4.8,0.,4.8
1979-08-01 06:53:29.210 ,0,1,2.,4.8,0.,4.8,0.,4.8,0.,4.8
1979-08-01 06:53:34.010 ,0,0,0.,4.8,0.,4.8,0.,4.8,0.,4.8
1979-08-01 06:53:38.810 ,0,0,1.,4.8,0.,4.8,0.,4.8,0.,4.8
1979-08-01 06:53:43.610 ,0,0,0.,4.8,0.,4.8,0.,4.8,0.,4.8
1979-08-01 06:53:48.410 ,0,0,2.,4.8,0.,4.8,1.,4.8,0.,4.8
1979-08-01 06:53:53.210 ,0,0,0.,4.8,0.,4.8,0.,4.8,0.,4.8
1979-08-01 06:53:58.010 ,0,0,1.,4.8,0.,4.8,1.,4.8,0.,4.8
1979-08-01 06:54:02.810 ,0,0,0.,4.8,0.,4.8,0.,4.8,0.,4.8
1979-08-01 06:54:07.610 ,0,0,1.,4.8,0.,4.8,0.,4.8,0.,4.8
1979-08-01 06:54:12.410 ,0,0,0.,4.8,0.,4.8,0.,4.8,0.,4.8
1979-08-01 06:54:17.210 ,0,0,0.,4.8,1.,4.8,1.,4.8,0.,4.8
1979-08-01 06:54:22.010 ,5,0,0.,4.8,0.,4.8,1.,4.8,0.,4.8
1979-08-01 06:54:26.810 ,5,0,0.,4.8,0.,4.8,2.,4.8,0.,4.8
1979-08-01 06:54:31.610 ,5,0,1.,4.8,0.,4.8,0.,4.8,0.,4.8
1979-08-01 06:54:36.410 ,5,0,0.,4.8,0.,4.8,0.,4.8,0.,4.8
1979-08-01 06:54:41.210 ,5,0,0.,4.8,0.,4.8,0.,4.8,0.,4.8
1979-08-01 06:54:46.010 ,5,0,0.,4.8,0.,4.8,0.,4.8,0.,4.8
1979-08-01 06:54:50.810 ,5,0,1.,4.8,1.,4.8,0.,4.8,0.,4.8
1979-08-01 06:54:55.610 ,5,0,0.,4.8,0.,4.8,1.,4.8,0.,4.8
1979-08-01 06:55:00.410 ,5,0,0.,4.8,0.,4.8,0.,4.8,0.,4.8
1979-08-01 06:55:05.210 ,5,0,0.,4.8,0.,4.8,0.,4.8,0.,4.8
1979-08-01 06:55:10.010 ,4,0,0.,4.8,0.,4.8,1.,4.8,0.,4.8
1979-08-01 06:55:14.810 ,4,0,1.,4.8,0.,4.8,1.,4.8,0.,4.8
1979-08-01 06:55:19.610 ,4,0,,0,,0,,0,,0
1979-08-01 06:55:24.410 ,4,0,2.,4.8,0.,4.8,0.,4.8,0.,4.8
1979-08-01 06:55:29.210 ,4,0,0.,4.8,0.,4.8,0.,4.8,0.,4.8
1979-08-01 06:55:34.010 ,4,0,1.,4.8,0.,4.8,0.,4.8,0.,4.8
1979-08-01 06:55:38.810 ,4,0,2.,4.8,0.,4.8,0.,4.8,0.,4.8
1979-08-01 06:55:43.610 ,4,0,0.,4.8,1.,4.8,0.,4.8,0.,4.8
1979-08-01 06:55:48.410 ,4,0,0.,4.8,0.,4.8,0.,4.8,0.,4.8
1979-08-01 06:55:53.210 ,4,0,2.,4.8,0.,4.8,0.,4.8,0.,4.8
1979-08-01 06:55:58.010 ,3,0,0.,4.8,0.,4.8,0.,4.8,0.,4.8
1979-08-01 06:56:02.810 ,3,0,0.,4.8,0.,4.8,0.,4.8,0.,4.8
1979-08-01 06:56:07.610 ,3,0,0.,4.8,0.,4.8,0.,4.8,0.,4.8
1979-08-01 06:56:12.410 ,3,0,0.,4.8,0.,4.8,0.,4.8,0.,4.8
1979-08-01 06:56:17.210 ,3,0,1.,4.8,0.,4.8,0.,4.8,0.,4.8
1979-08-01 06:56:22.010 ,3,0,1.,4.8,0.,4.8,0.,4.8,0.,4.8
1979-08-01 06:56:26.810 ,3,0,0.,4.8,0.,4.8,2.,4.8,0.,4.8
1979-08-01 06:56:31.610 ,3,0,0.,4.8,0.,4.8,1.,4.8,0.,4.8
1979-08-01 06:56:36.410 ,3,0,0.,4.8,0.,4.8,0.,4.8,0.,4.8
1979-08-01 06:56:41.210 ,3,0,0.,4.8,0.,4.8,0.,4.8,0.,4.8
1979-08-01 06:56:46.010 ,2,0,0.,4.8,0.,4.8,0.,4.8,0.,4.8
1979-08-01 06:56:50.800 ,2,0,1.,4.8,0.,4.8,0.,4.8,0.,4.8
1979-08-01 06:56:55.600 ,2,0,3.,4.8,0.,4.8,0.,4.8,0.,4.8
1979-08-01 06:57:00.410 ,2,0,0.,4.8,0.,4.8,0.,4.8,0.,4.8
1979-08-01 06:57:05.210 ,2,0,0.,4.8,0.,4.8,0.,4.8,0.,4.8
1979-08-01 06:57:10.010 ,2,0,0.,4.8,0.,4.8,0.,4.8,0.,4.8
1979-08-01 06:57:14.800 ,2,0,1.,4.8,0.,4.8,0.,4.8,0.,4.8
1979-08-01 06:57:19.600 ,2,0,2.,4.8,0.,4.8,0.,4.8,0.,4.8
1979-08-01 06:57:24.410 ,2,0,0.,4.8,0.,4.8,0.,4.8,0.,4.8
1979-08-01 06:57:29.210 ,2,0,0.,4.8,0.,4.8,0.,4.8,0.,4.8
1979-08-01 06:57:34.010 ,1,0,0.,4.8,0.,4.8,0.,4.8,0.,4.8
1979-08-01 06:57:38.800 ,1,0,0.,4.8,0.,4.8,0.,4.8,0.,4.8
1979-08-01 06:57:43.600 ,1,0,0.,4.8,0.,4.8,1.,4.8,0.,4.8
1979-08-01 06:57:48.410 ,1,0,1.,4.8,0.,4.8,0.,4.8,0.,4.8
1979-08-01 06:57:53.210 ,1,0,0.,4.8,0.,4.8,0.,4.8,0.,4.8
1979-08-01 06:57:58.010 ,1,0,1.,4.8,0.,4.8,0.,4.8,0.,4.8
1979-08-01 06:58:02.800 ,1,0,0.,4.8,0.,4.8,1.,4.8,0.,4.8
1979-08-01 06:58:07.600 ,1,0,1.,4.8,0.,4.8,0.,4.8,0.,4.8